| time (UTC) | temp F | wind direction | speed MPH | gust MPH | rain 1hr in | rain 24hr in | rain mn in | humidity % | barometer mb |
| 20260503203119 | 61 | 213 | 2.0 | 7.0 | 0.00 | 0.00 | 0.00 | 39 | 1011.2 |
| 20260503202616 | 61 | 208 | 4.0 | 9.0 | 0.00 | 0.00 | 0.00 | 38 | 1011.3 |
| 20260503202114 | 62 | 211 | 4.0 | 7.0 | 0.00 | 0.00 | 0.00 | 38 | 1011.2 |
| 20260503201612 | 62 | 218 | 4.0 | 11.0 | 0.00 | 0.00 | 0.00 | 37 | 1011.5 |
| 20260503201109 | 61 | 203 | 4.0 | 5.0 | 0.00 | 0.00 | 0.00 | 38 | 1011.5 |
| 20260503200605 | 61 | 201 | 2.0 | 7.0 | 0.00 | 0.00 | 0.00 | 38 | 1011.7 |
| 20260503195559 | 64 | 200 | 3.0 | 12.0 | 0.00 | 0.00 | 0.00 | 37 | 1011.5 |
| 20260503195056 | 63 | 222 | 9.0 | 22.0 | 0.00 | 0.00 | 0.00 | 34 | 1011.6 |
| 20260503194553 | 62 | 212 | 5.0 | 10.0 | 0.00 | 0.00 | 0.00 | 38 | 1011.7 |
| 20260503194053 | 63 | 223 | 4.0 | 11.0 | 0.00 | 0.00 | 0.00 | 37 | 1012.0 |
| 20260503193550 | 63 | 206 | 4.0 | 10.0 | 0.00 | 0.00 | 0.00 | 40 | 1012.1 |
| 20260503193045 | 63 | 204 | 3.0 | 12.0 | 0.00 | 0.00 | 0.00 | 36 | 1012.1 |
| 20260503192541 | 62 | 195 | 0.0 | 9.0 | 0.00 | 0.00 | 0.00 | 37 | 1012.2 |
| 20260503192037 | 61 | 227 | 5.0 | 9.0 | 0.00 | 0.00 | 0.00 | 37 | 1012.2 |
| 20260503191534 | 62 | 147 | 3.0 | 7.0 | 0.00 | 0.00 | 0.00 | 39 | 1012.2 |
| 20260503191031 | 62 | 212 | 5.0 | 7.0 | 0.00 | 0.00 | 0.00 | 37 | 1012.5 |
| 20260503190528 | 62 | 197 | 4.0 | 15.0 | 0.00 | 0.00 | 0.00 | 36 | 1012.4 |
| 20260503190025 | 63 | 216 | 5.0 | 11.0 | 0.00 | 0.00 | 0.00 | 37 | 1012.5 |
| 20260503185521 | 61 | 207 | 2.0 | 6.0 | 0.00 | 0.00 | 0.00 | 40 | 1012.5 |
| 20260503185020 | 63 | 201 | 3.0 | 11.0 | 0.00 | 0.00 | 0.00 | 37 | 1012.5 |
| 20260503184517 | 62 | 195 | 5.0 | 10.0 | 0.00 | 0.00 | 0.00 | 37 | 1012.6 |
| 20260503184013 | 62 | 216 | 0.0 | 10.0 | 0.00 | 0.00 | 0.00 | 39 | 1012.5 |
| 20260503183510 | 61 | 201 | 2.0 | 9.0 | 0.00 | 0.00 | 0.00 | 38 | 1012.6 |
| 20260503183007 | 63 | 224 | 5.0 | 8.0 | 0.00 | 0.00 | 0.00 | 37 | 1012.6 |
| 20260503182506 | 62 | 216 | 7.0 | 12.0 | 0.00 | 0.00 | 0.00 | 38 | 1012.7 |
| 20260503182004 | 62 | 284 | 3.0 | 8.0 | 0.00 | 0.00 | 0.00 | 37 | 1012.9 |
| 20260503181500 | 62 | 186 | 2.0 | 15.0 | 0.00 | 0.00 | 0.00 | 38 | 1012.9 |
| 20260503180956 | 61 | 224 | 2.0 | 9.0 | 0.00 | 0.00 | 0.00 | 38 | 1013.1 |
| 20260503180454 | 61 | 202 | 2.0 | 7.0 | 0.00 | 0.00 | 0.00 | 38 | 1013.1 |
| 20260503175951 | 61 | 239 | 1.0 | 13.0 | 0.00 | 0.00 | 0.00 | 39 | 1013.2 |
| 20260503175449 | 62 | 226 | 6.0 | 10.0 | 0.00 | 0.00 | 0.00 | 38 | 1013.0 |
| 20260503174944 | 62 | 133 | 2.0 | 15.0 | 0.00 | 0.00 | 0.00 | 37 | 1013.3 |
| 20260503174443 | 62 | 226 | 3.0 | 9.0 | 0.00 | 0.00 | 0.00 | 41 | 1013.3 |
| 20260503173943 | 62 | 218 | 4.0 | 7.0 | 0.00 | 0.00 | 0.00 | 38 | 1013.2 |
| 20260503173440 | 62 | 204 | 5.0 | 7.0 | 0.00 | 0.00 | 0.00 | 40 | 1013.2 |
| 20260503172937 | 62 | 179 | 3.0 | 11.0 | 0.00 | 0.00 | 0.00 | 41 | 1013.7 |
| 20260503172434 | 62 | 217 | 5.0 | 11.0 | 0.00 | 0.00 | 0.00 | 41 | 1013.6 |
| 20260503171930 | 61 | 192 | 2.0 | 19.0 | 0.00 | 0.00 | 0.00 | 40 | 1013.8 |
| 20260503171427 | 61 | 6 | 4.0 | 11.0 | 0.00 | 0.00 | 0.00 | 43 | 1013.9 |
| 20260503170925 | 62 | 234 | 6.0 | 8.0 | 0.00 | 0.00 | 0.00 | 42 | 1013.8 |
| 20260503170421 | 61 | 202 | 6.0 | 9.0 | 0.00 | 0.00 | 0.00 | 41 | 1013.8 |
| 20260503150813 | 57 | 216 | 5.0 | 12.0 | 0.00 | 0.00 | 0.00 | 41 | 1014.8 |
| 20260503150309 | 56 | 145 | 3.0 | 15.0 | 0.00 | 0.00 | 0.00 | 44 | 1014.9 |
| 20260503140234 | 53 | 149 | 5.0 | 8.0 | 0.00 | 0.00 | 0.00 | 46 | 1015.0 |
| 20260503131203 | 48 | 201 | 1.0 | 4.0 | 0.00 | 0.00 | 0.00 | 53 | 1015.6 |
| 20260503130700 | 47 | 192 | 3.0 | 6.0 | 0.00 | 0.00 | 0.00 | 54 | 1015.7 |
| 20260503130158 | 47 | 181 | 4.0 | 7.0 | 0.00 | 0.00 | 0.00 | 57 | 1015.8 |
| 20260503120123 | 41 | 165 | 2.0 | 4.0 | 0.00 | 0.00 | 0.00 | 71 | 1015.6 |
| 20260503110550 | 37 | 106 | 0.0 | 2.0 | 0.00 | 0.00 | 0.00 | 77 | 1015.6 |
| 20260503090437 | 37 | 91 | 1.0 | 3.0 | 0.00 | 0.00 | 0.00 | 78 | 1015.3 |
| 20260503081404 | 37 | 20 | 1.0 | 3.0 | 0.00 | 0.00 | 0.00 | 79 | 1015.5 |
| 20260503080901 | 37 | 72 | 2.0 | 3.0 | 0.00 | 0.00 | 0.00 | 79 | 1015.5 |
| 20260503080358 | 37 | 81 | 3.0 | 3.0 | 0.00 | 0.00 | 0.00 | 79 | 1015.4 |
| 20260503072834 | 37 | 98 | 0.0 | 3.0 | 0.00 | 0.00 | 0.00 | 81 | 1015.3 |
| 20260503072331 | 37 | 89 | 0.0 | 2.0 | 0.00 | 0.00 | 0.00 | 81 | 1015.3 |
| 20260503071827 | 37 | 180 | 0.0 | 3.0 | 0.00 | 0.00 | 0.00 | 81 | 1015.4 |
| 20260503071325 | 37 | 231 | 0.0 | 2.0 | 0.00 | 0.00 | 0.00 | 81 | 1015.4 |
| 20260503070821 | 37 | 76 | 1.0 | 3.0 | 0.00 | 0.00 | 0.00 | 81 | 1015.3 |
| 20260503070319 | 37 | 188 | 2.0 | 3.0 | 0.00 | 0.00 | 0.00 | 82 | 1015.2 |
| 20260503060244 | 37 | 49 | 0.0 | 2.0 | 0.00 | 0.00 | 0.00 | 86 | 1015.7 |
| 20260503054731 | 37 | 138 | 2.0 | 3.0 | 0.00 | 0.00 | 0.00 | 86 | 1015.7 |
| 20260503054228 | 38 | 80 | 1.0 | 2.0 | 0.00 | 0.00 | 0.00 | 86 | 1015.7 |
| 20260503053726 | 38 | 150 | 2.0 | 3.0 | 0.00 | 0.00 | 0.00 | 86 | 1015.7 |
| 20260503053225 | 38 | 103 | 1.0 | 2.0 | 0.00 | 0.00 | 0.00 | 86 | 1015.7 |
| 20260503052720 | 38 | 65 | 0.0 | 2.0 | 0.00 | 0.00 | 0.00 | 86 | 1015.7 |
| 20260503052217 | 38 | 88 | 0.0 | 3.0 | 0.00 | 0.00 | 0.00 | 86 | 1015.9 |
| 20260503051712 | 38 | 106 | 2.0 | 3.0 | 0.00 | 0.00 | 0.00 | 86 | 1015.8 |
| 20260503051210 | 38 | 91 | 1.0 | 2.0 | 0.00 | 0.00 | 0.00 | 85 | 1015.9 |
| 20260503050707 | 38 | 89 | 0.0 | 2.0 | 0.00 | 0.00 | 0.00 | 85 | 1015.8 |
| 20260503050203 | 38 | 111 | 1.0 | 3.0 | 0.00 | 0.00 | 0.00 | 84 | 1015.7 |
| 20260503045701 | 38 | 89 | 0.0 | 3.0 | 0.00 | 0.00 | 0.00 | 84 | 1015.7 |
| 20260503045158 | 38 | 112 | 2.0 | 3.0 | 0.00 | 0.00 | 0.00 | 82 | 1015.8 |
| 20260503044654 | 38 | 80 | 1.0 | 2.0 | 0.00 | 0.00 | 0.00 | 81 | 1015.8 |
| 20260503044152 | 38 | 182 | 1.0 | 3.0 | 0.00 | 0.00 | 0.00 | 80 | 1015.9 |
| 20260503043648 | 38 | 109 | 2.0 | 2.0 | 0.00 | 0.00 | 0.00 | 80 | 1015.7 |
| 20260503043146 | 39 | 102 | 1.0 | 3.0 | 0.00 | 0.00 | 0.00 | 80 | 1015.7 |
| 20260503042642 | 39 | 63 | 1.0 | 2.0 | 0.00 | 0.00 | 0.00 | 79 | 1015.9 |
| 20260503042138 | 39 | 112 | 2.0 | 4.0 | 0.00 | 0.00 | 0.00 | 79 | 1015.9 |
| 20260503041635 | 40 | 97 | 3.0 | 3.0 | 0.00 | 0.00 | 0.00 | 79 | 1015.7 |
| 20260503041133 | 40 | 115 | 0.0 | 2.0 | 0.00 | 0.00 | 0.00 | 79 | 1015.8 |
| 20260503040630 | 40 | 101 | 1.0 | 3.0 | 0.00 | 0.00 | 0.00 | 78 | 1016.1 |
| 20260503040127 | 40 | 148 | 1.0 | 3.0 | 0.00 | 0.00 | 0.00 | 78 | 1016.2 |
| 20260503035623 | 40 | 86 | 0.0 | 2.0 | 0.00 | 0.16 | 0.16 | 78 | 1016.1 |
| 20260503035121 | 41 | 44 | 0.0 | 2.0 | 0.00 | 0.16 | 0.16 | 78 | 1016.0 |
| 20260503034618 | 41 | 102 | 0.0 | 2.0 | 0.00 | 0.16 | 0.16 | 77 | 1015.9 |
| 20260503034116 | 41 | 60 | 0.0 | 2.0 | 0.00 | 0.16 | 0.16 | 77 | 1015.8 |
| 20260503033613 | 42 | 155 | 0.0 | 2.0 | 0.00 | 0.16 | 0.16 | 76 | 1016.2 |
| 20260503033110 | 42 | 190 | 0.0 | 2.0 | 0.00 | 0.16 | 0.16 | 76 | 1016.2 |
| 20260503032608 | 42 | 76 | 0.0 | 2.0 | 0.00 | 0.16 | 0.16 | 76 | 1016.2 |
| 20260503032107 | 42 | 160 | 0.0 | 2.0 | 0.00 | 0.16 | 0.16 | 76 | 1016.2 |
| 20260503031604 | 42 | 69 | 0.0 | 3.0 | 0.00 | 0.16 | 0.16 | 76 | 1016.1 |
| 20260503031101 | 42 | 183 | 1.0 | 2.0 | 0.00 | 0.16 | 0.16 | 76 | 1016.1 |
| 20260503030557 | 42 | 147 | 0.0 | 3.0 | 0.00 | 0.16 | 0.16 | 76 | 1015.9 |
| 20260503030054 | 42 | 122 | 0.0 | 2.0 | 0.00 | 0.16 | 0.16 | 76 | 1016.3 |
| 20260503025551 | 42 | 187 | 1.0 | 2.0 | 0.00 | 0.16 | 0.16 | 76 | 1016.2 |
| 20260503025049 | 42 | 163 | 0.0 | 5.0 | 0.00 | 0.16 | 0.16 | 76 | 1016.4 |
| 20260503024544 | 42 | 168 | 1.0 | 3.0 | 0.00 | 0.16 | 0.16 | 76 | 1016.2 |
| 20260503024042 | 42 | 151 | 2.0 | 4.0 | 0.00 | 0.16 | 0.16 | 75 | 1016.2 |
| 20260503023538 | 42 | 171 | 2.0 | 2.0 | 0.00 | 0.16 | 0.16 | 75 | 1016.4 |
| 20260503023036 | 42 | 180 | 0.0 | 3.0 | 0.00 | 0.16 | 0.16 | 74 | 1016.3 |
| 20260503022532 | 42 | 145 | 1.0 | 4.0 | 0.00 | 0.16 | 0.16 | 74 | 1016.5 |
| 20260503022027 | 42 | 177 | 1.0 | 2.0 | 0.00 | 0.16 | 0.16 | 74 | 1016.3 |
| 20260503021524 | 43 | 191 | 0.0 | 3.0 | 0.00 | 0.16 | 0.16 | 73 | 1016.4 |
| 20260503021021 | 43 | 188 | 0.0 | 2.0 | 0.00 | 0.16 | 0.16 | 73 | 1016.4 |
| 20260503020518 | 43 | 135 | 0.0 | 2.0 | 0.00 | 0.16 | 0.16 | 72 | 1016.3 |
| 20260503020015 | 43 | 136 | 1.0 | 2.0 | 0.00 | 0.16 | 0.16 | 72 | 1016.4 |
| 20260503015511 | 43 | 120 | 0.0 | 3.0 | 0.00 | 0.16 | 0.16 | 72 | 1016.3 |
| 20260503015008 | 43 | 134 | 2.0 | 3.0 | 0.00 | 0.16 | 0.16 | 72 | 1016.4 |
| 20260503014504 | 43 | 74 | 0.0 | 2.0 | 0.00 | 0.16 | 0.16 | 71 | 1016.4 |
| 20260503014003 | 43 | 124 | 0.0 | 2.0 | 0.00 | 0.16 | 0.16 | 71 | 1016.2 |
| 20260503013459 | 43 | 122 | 3.0 | 5.0 | 0.00 | 0.16 | 0.16 | 72 | 1016.2 |
| 20260503012956 | 43 | 151 | 0.0 | 2.0 | 0.00 | 0.16 | 0.16 | 71 | 1016.3 |
| 20260503012455 | 43 | 49 | 1.0 | 2.0 | 0.00 | 0.16 | 0.16 | 70 | 1016.2 |
| 20260503011950 | 43 | 124 | 0.0 | 2.0 | 0.00 | 0.16 | 0.16 | 69 | 1016.1 |
| 20260503011447 | 43 | 89 | 1.0 | 2.0 | 0.00 | 0.16 | 0.16 | 68 | 1016.0 |
| 20260503010944 | 43 | 163 | 0.0 | 2.0 | 0.00 | 0.16 | 0.16 | 68 | 1016.2 |
| 20260503010441 | 43 | 172 | 0.0 | 2.0 | 0.00 | 0.16 | 0.16 | 66 | 1016.1 |
| 20260503005938 | 44 | 154 | 0.0 | 2.0 | 0.00 | 0.16 | 0.16 | 67 | 1016.2 |
| 20260503005436 | 44 | 169 | 2.0 | 2.0 | 0.00 | 0.16 | 0.16 | 68 | 1016.1 |
| 20260503004932 | 43 | 127 | 0.0 | 2.0 | 0.00 | 0.16 | 0.16 | 68 | 1016.0 |
| 20260503004429 | 44 | 110 | 0.0 | 2.0 | 0.00 | 0.16 | 0.16 | 67 | 1016.1 |
| 20260503003927 | 44 | 124 | 0.0 | 2.0 | 0.00 | 0.16 | 0.16 | 66 | 1016.0 |
| 20260503003423 | 44 | 135 | 0.0 | 2.0 | 0.00 | 0.16 | 0.16 | 62 | 1015.9 |
| 20260503002921 | 44 | 180 | 0.0 | 3.0 | 0.00 | 0.16 | 0.16 | 56 | 1015.9 |
| 20260503002418 | 45 | 215 | 2.0 | 4.0 | 0.00 | 0.16 | 0.16 | 55 | 1015.9 |
| 20260503001914 | 44 | 5 | 2.0 | 4.0 | 0.00 | 0.16 | 0.16 | 57 | 1016.0 |
| 20260503001410 | 44 | 92 | 1.0 | 3.0 | 0.00 | 0.16 | 0.16 | 61 | 1015.9 |
| 20260503000908 | 45 | 141 | 0.0 | 2.0 | 0.00 | 0.16 | 0.16 | 60 | 1016.0 |
| 20260503000407 | 45 | 214 | 2.0 | 4.0 | 0.00 | 0.16 | 0.16 | 57 | 1015.8 |
| 20260502235902 | 45 | 176 | 1.0 | 4.0 | 0.00 | 0.16 | 0.16 | 57 | 1015.8 |
| 20260502235359 | 45 | 228 | 2.0 | 3.0 | 0.00 | 0.16 | 0.16 | 56 | 1015.9 |
| 20260502234856 | 45 | 223 | 4.0 | 5.0 | 0.00 | 0.16 | 0.16 | 57 | 1015.8 |
| 20260502234353 | 45 | 332 | 3.0 | 4.0 | 0.00 | 0.16 | 0.16 | 57 | 1015.8 |
| 20260502233849 | 45 | 214 | 3.0 | 4.0 | 0.00 | 0.16 | 0.16 | 56 | 1015.7 |
| 20260502233345 | 45 | 181 | 2.0 | 4.0 | 0.00 | 0.16 | 0.16 | 55 | 1015.8 |
| 20260502232843 | 45 | 84 | 0.0 | 2.0 | 0.00 | 0.16 | 0.16 | 56 | 1015.7 |
| 20260502232339 | 45 | 72 | 0.0 | 5.0 | 0.00 | 0.16 | 0.16 | 55 | 1015.9 |
| 20260502231835 | 45 | 337 | 2.0 | 6.0 | 0.00 | 0.16 | 0.16 | 58 | 1015.8 |
| 20260502231334 | 45 | 143 | 0.0 | 9.0 | 0.00 | 0.16 | 0.16 | 54 | 1016.0 |
| 20260502230831 | 46 | 63 | 0.0 | 4.0 | 0.00 | 0.16 | 0.16 | 56 | 1015.8 |
| 20260502230329 | 46 | 30 | 3.0 | 6.0 | 0.00 | 0.16 | 0.16 | 57 | 1016.0 |
| 20260502225826 | 46 | 341 | 2.0 | 4.0 | 0.00 | 0.16 | 0.16 | 54 | 1016.0 |
| 20260502225322 | 46 | 217 | 2.0 | 5.0 | 0.00 | 0.16 | 0.16 | 54 | 1016.0 |
| 20260502224819 | 45 | 326 | 2.0 | 6.0 | 0.00 | 0.16 | 0.16 | 55 | 1016.0 |
| 20260502224315 | 45 | 211 | 3.0 | 4.0 | 0.00 | 0.16 | 0.16 | 54 | 1015.9 |
| 20260502223814 | 46 | 209 | 1.0 | 8.0 | 0.00 | 0.16 | 0.16 | 54 | 1015.9 |
| 20260502223311 | 46 | 232 | 3.0 | 4.0 | 0.00 | 0.16 | 0.16 | 55 | 1016.0 |
| 20260502222809 | 46 | 193 | 1.0 | 5.0 | 0.00 | 0.16 | 0.16 | 53 | 1016.1 |
| 20260502222306 | 46 | 202 | 4.0 | 7.0 | 0.00 | 0.16 | 0.16 | 52 | 1016.0 |
| 20260502221801 | 47 | 340 | 3.0 | 9.0 | 0.00 | 0.16 | 0.16 | 53 | 1016.0 |
| 20260502221258 | 48 | 201 | 6.0 | 9.0 | 0.00 | 0.16 | 0.16 | 48 | 1016.3 |
| 20260502220755 | 47 | 18 | 2.0 | 7.0 | 0.00 | 0.16 | 0.16 | 55 | 1016.1 |
| 20260502220251 | 48 | 246 | 5.0 | 9.0 | 0.00 | 0.16 | 0.16 | 49 | 1016.3 |
| 20260502215747 | 48 | 344 | 3.0 | 8.0 | 0.00 | 0.16 | 0.16 | 52 | 1016.2 |
| 20260502215245 | 48 | 41 | 5.0 | 9.0 | 0.00 | 0.16 | 0.16 | 52 | 1016.2 |
| 20260502214742 | 48 | 61 | 4.0 | 8.0 | 0.00 | 0.16 | 0.16 | 57 | 1016.1 |
| 20260502214239 | 47 | 52 | 2.0 | 6.0 | 0.00 | 0.16 | 0.16 | 52 | 1016.1 |
| 20260502213736 | 47 | 20 | 6.0 | 8.0 | 0.00 | 0.16 | 0.16 | 53 | 1016.1 |
| 20260502213233 | 46 | 48 | 2.0 | 5.0 | 0.00 | 0.16 | 0.16 | 56 | 1016.1 |
| 20260502212732 | 47 | 12 | 3.0 | 5.0 | 0.00 | 0.16 | 0.16 | 55 | 1016.4 |
| 20260502212230 | 48 | 345 | 5.0 | 11.0 | 0.00 | 0.16 | 0.16 | 54 | 1016.1 |
| 20260502211725 | 49 | 230 | 2.0 | 8.0 | 0.00 | 0.16 | 0.16 | 54 | 1016.1 |
| 20260502211222 | 48 | 220 | 3.0 | 8.0 | 0.00 | 0.16 | 0.16 | 51 | 1016.1 |
| 20260502210719 | 47 | 225 | 6.0 | 7.0 | 0.00 | 0.16 | 0.16 | 52 | 1016.3 |
| 20260502210217 | 46 | 30 | 3.0 | 7.0 | 0.00 | 0.16 | 0.16 | 58 | 1016.2 |
| 20260502205714 | 47 | 36 | 2.0 | 7.0 | 0.00 | 0.16 | 0.16 | 52 | 1016.1 |
| 20260502205210 | 47 | 205 | 0.0 | 6.0 | 0.00 | 0.16 | 0.16 | 59 | 1016.2 |
| 20260502204707 | 46 | 15 | 1.0 | 5.0 | 0.00 | 0.16 | 0.16 | 61 | 1016.3 |
| 20260502204205 | 46 | 53 | 5.0 | 7.0 | 0.00 | 0.16 | 0.16 | 60 | 1016.3 |
| 20260502203702 | 46 | 338 | 3.0 | 7.0 | 0.00 | 0.16 | 0.16 | 57 | 1016.3 |